Simultaneous Nadir Overpasses (SNOs) Predictions

Prediction of SNOs between AURA and NPP Satellite Orbit:

Table of predicted SNOs for the next 14.0 days since TLE Epoch: 8/31/2018
Index Date (AURA) Time (AURA) Lat,Lon (AURA) SZA (AURA ) Date (NPP) Time (NPP) Lat,Lon (NPP) SZA (NPP ) Distance(km) Time Diff (sec)
1 08/31/2018 19:08:40 -79.23, -32.18 95.51 08/31/2018 19:08:07 -79.24, -32.08 95.50 2.18 33
2 08/31/2018 19:58:02 79.39, 136.50 84.29 08/31/2018 19:58:47 79.39, 136.36 84.28 3.17 45
3 09/03/2018 11:25:07 -79.30, 84.13 94.68 09/03/2018 11:25:02 -79.30, 84.15 94.68 0.34 5
4 09/03/2018 12:14:26 79.57,-106.40 84.95 09/03/2018 12:15:38 79.57,-106.33 84.88 1.57 72
5 09/06/2018 02:52:14 79.09, 31.01 86.55 09/06/2018 02:51:19 79.09, 31.05 86.59 0.79 55
6 09/06/2018 03:41:35 -79.33,-159.83 93.78 09/06/2018 03:41:58 -79.32,-159.90 93.78 1.52 23
7 09/08/2018 19:08:40 79.18, 147.50 87.36 09/08/2018 19:08:13 79.18, 147.49 87.38 0.42 27
8 09/08/2018 19:58:01 -79.42, -43.30 92.97 09/08/2018 19:58:52 -79.41, -43.43 92.99 2.92 51
9 09/11/2018 10:37:36 -73.83, 76.27 85.47 09/11/2018 10:36:22 -74.11, 74.77 85.22 55.64 74
10 09/11/2018 11:25:06 79.24, -96.27 88.24 09/11/2018 11:25:07 79.24, -96.34 88.25 1.31 1
11 09/14/2018 02:52:11 -79.14,-148.64 90.68 09/14/2018 02:51:22 -79.15,-148.54 90.67 2.13 49




NCC Satellite Simultaneous Nadir Overpasses (SNOs) Prediction Service
